Location: Banios
(43.0451°N, 0.2335°E)
Time: 19:37:31
(UTC+00:00)

SL-8 R/B - Pass Details

Date: 25 January 2021
Orbit: 657 x 667 km, 48.4° (Epoch: 02 March)

Event Time Altitude Azimuth Distance (km) Brightness Sun altitude
Exits shadow 04:55:29 47° 166° (SSE) 881 4.3 -26.5°
Drops below altitude 10° 04:59:10 10° 135° (SE) 2,080 6.8 -25.8°
Sets 05:01:32 0° 131° (SE) 2,989 7.8 -25.4°
